Regional Weather Roundup
Issued by NWS Newport/Morehead, NC

Current Version | Previous Version | Text Only | Print | Product List | Glossary On
Versions: 1 2 3 4 5 6 7 8 9 10 11 12 13 14 15 16 17 18 19 20 21 22 23 24 25 26 27 28 29 30 31 32 33 34 35 36 37 38 39 40 41 42 43 44 45 46 47 48 49 50
000
ASUS42 KMHX 242322
RWRMHX
WEATHER ROUNDUP FOR EASTERN NORTH CAROLINA
NATIONAL WEATHER SERVICE NEWPORT/MOREHEAD CITY NC
600 PM EST WED DEC 24 2014

NOTE: "FAIR" INDICATES FEW OR NO CLOUDS BELOW 12,000 FEET
WITH NO SIGNIFICANT WEATHER AND/OR OBSTRUCTIONS TO VISIBILITY

NCZ015>017-031-032-045>047-102-103-250000-
NORTH COAST

CITY           SKY/WX    TMP DP  RH WIND       PRES   REMARKS
EDENTON        CLOUDY    66  64  94 SW9       29.75R
ELIZABETH CITY CLOUDY    71  65  81 S12G21    29.74R
KITTY HAWK     CLOUDY    67  67 100 S7        29.74F
MANTEO         DRIZZLE   64  64 100 S16       29.77F

$$

NCZ045>047-081-094-103-104-250000-
CENTRAL COAST

CITY           SKY/WX    TMP DP  RH WIND       PRES   REMARKS
FRISCO         CLOUDY    66  65  96 SW16G23   29.81S FOG
SWANQUARTER      N/A     63 N/A N/A S13G20    29.77S

$$

NCZ095-097-098-100-101-250000-
SOUTHERN COAST

CITY           SKY/WX    TMP DP  RH WIND       PRES   REMARKS
BEAUFORT       RAIN      64  63  96 W7        29.83F FOG
CEDAR ISLAND     N/A     64 N/A N/A S7G18     29.88R
JACKSONVILLE   CLOUDY    66  63  90 S9        29.78F
PINEY ISLAND   LGT RAIN  70  64  81 SW16G25   29.83R
WILMINGTON     CLOUDY    67  64  90 SW8       29.79F


$$

NCZ011>013-027>030-043-044-078>080-089-090>093-098-250000-
COASTAL PLAIN

CITY           SKY/WX    TMP DP  RH WIND       PRES   REMARKS
AHOSKIE        MOCLDY    66  65  97 S8        29.71F
CLINTON        CLOUDY    66  65  94 S6        29.75R
ELIZABETHTOWN  CLOUDY    67  64  90 S7        29.77R
GOLDSBORO      CLOUDY    68  67  99 S10       29.71F
GREENVILLE     MOCLDY    68  64  88 SW10      29.77S
HAVELOCK       CLOUDY    67  64  90 S9        29.82R
KENANSVILLE    CLOUDY    65  63  94 SE6       29.77S
KINSTON        MOCLDY    68  64  88 S13       29.75F
NEW BERN       CLOUDY    68  64  87 S8        29.79F
RICHLANDS      CLOUDY    64  61  88 S8        29.78S
ROCKY MOUNT    CLOUDY    67  63  87 S12       29.72R
WASHINGTON     CLOUDY    68  64  88 SW10G16   29.76S
WHITEVILLE     CLOUDY    67  63  86 S8        29.77R

$$

AMZ130-135-150-152-154-156-158-170-250-252-270-ANZ085-086-088-633-658-670-250000-
MARINE OBSERVATIONS

STATION/POSITION TIME  TEMP    WIND        PRES    WAVE   SWELL
                       AIR SEA DIR/SP/G            HT/PER HT/PER
                 (UTC) (F)     (DEG/KT/KT) (MB)    (FT/S) (FT/S)
CHESAPEAKE LIGHT 2300   57     200/ 16/ 18 1006.8
64 E VA BEACH    2300   60 53  180/ 17/ 27 1007.7    7/ 8   2/14
DUCK             2300   63 50  190/ 18/ 22 1006.0
2 E DUCK         2300      49                N/A     4/ 8   2/11
10 NE DUCK       2300      51                N/A     5/ 7   2/11
OREGON INLET     2300   61 51  200/ 22/ 25 1008.7
13E OREGON INLT  2300      52                N/A     6/ 8   2/11
HATTERAS CG      2300   68 55  190/  7/ 13 1009.5
DIAMOND BUOY     2300   76                 1009.3    8/ 7
17 S OCRACOKE    NOT AVBL
CAPE LOOKOUT     2300   65     270/ 15/ 17 1010.1
BEAUFORT LAB     2300   63 54  270/  4/  8 1009.2
30 SE NEW RIVER  2300   67 60  200/ 14/ 16 1009.6    9/ 8   7/ 8
5 SE WRIGHTSVLE  NOT AVBL
225 S CAPE HAT   2228   74 72  200/ 16/ 19 1014.6    6/ 6   2/ 9
41 SE CHARLESTON 2300   76 73  190/ 19/ 21 1008.2    8/ 8   5/ 8

$$



USA.gov is the U.S. government's official web portal to all federal, state and local government web resources and services.